Flag for Sudan Weather past 2 weeks in Khartoum, Sudan

Now
N/A

Clear.


Feels Like: N/A
Forecast: 82 / 109 °F
Wind: 9 mph from Southwest

Location: Khartoum Airport

Current Time: Jul 5, 2015 at 3:59:40 AM

Latest Report: Jul 5, 2015 at 3:30 AM


Visibility: 10 mi

Pressure: 29.89 "Hg

Humidity: N/A

Dew point: N/A

Location of KhartoumLocation

Historic Weather in Khartoum — Graph

°F

Khartoum temperature yesterday

Maximum temperature yesterday: 106 °F (at 3:00 PM)
Minimum temperature yesterday: 88 °F (at 6:00 AM)
Average temperature yesterday: 96 °F

Past Weeks' High & Low Weather Summary

 TemperatureHumidityPressure
High109 °F (Jun 20, 4:00 PM)62% (Jul 2, 9:00 AM)29.98 "Hg (Jul 2, 9:00 AM)
Low82 °F (Jun 22, 6:00 AM)4% (Jun 20, 4:00 PM)29.71 "Hg (Jun 20, 5:30 PM)
Average95 °F24%29.85 "Hg
* Reported Jun 20 2:00 AM — Jul 5 2:30 AM, Khartoum, Weather by CustomWeather, © 2015

Note: Actual official high and low records may vary slightly from our data, if they occured in-between our weather recording intervals... More about our weather records

Advertising

Khartoum weather history for previous 24 hours

 ConditionsComfort  
Time TempWeatherWind HumidityBarometerVisibility
2:30 AM
Sun, Jul 5
N/AClear.12 mphN/A29.89 "Hg10 mi
2:00 AM88 °FClear.16 mph38%29.92 "Hg10 mi
1:30 AMN/AClear.14 mphN/A29.92 "Hg10 mi
1:00 AM90 °FClear.14 mph36%29.92 "Hg10 mi
12:30 AMN/AClear.18 mphN/A29.89 "Hg10 mi
11:30 PM
Sat, Jul 4
N/AClear.18 mphN/A29.89 "Hg10 mi
10:00 PM99 °FClear.3 mph13%29.83 "Hg10 mi
9:30 PMN/AClear.5 mphN/A29.83 "Hg10 mi
9:00 PM99 °FClear.5 mph13%29.83 "Hg10 mi
8:00 PM102 °FClear.3 mph9%29.80 "Hg10 mi
7:30 PMN/AClear.5 mphN/A29.80 "Hg10 mi
7:00 PM104 °FSunny.7 mph8%29.80 "Hg10 mi
6:30 PMN/ASunny.5 mphN/A29.80 "Hg10 mi
6:00 PM106 °FSunny.9 mph8%29.80 "Hg10 mi
5:30 PMN/ASunny.12 mphN/A29.77 "Hg10 mi
5:00 PM106 °FSunny.2 mph7%29.80 "Hg10 mi
4:00 PM106 °FSunny.7 mph9%29.80 "Hg10 mi
3:30 PMN/ASunny.2 mphN/A29.83 "Hg10 mi
3:00 PM106 °FSunny.5 mph9%29.86 "Hg10 mi
2:30 PMN/ASunny.6 mphN/A29.86 "Hg10 mi
1:30 PMN/ASunny.6 mphN/A29.86 "Hg10 mi
12:30 PMN/APassing clouds.6 mphN/A29.89 "HgN/A
11:30 AMN/ASunny.9 mphN/A29.89 "Hg10 mi
10:30 AMN/ASunny.15 mphN/A29.92 "Hg10 mi
10:00 AM95 °FSunny.14 mph13%29.92 "Hg10 mi
9:30 AMN/ASunny.13 mphN/A29.89 "Hg10 mi
9:00 AM93 °FSunny.16 mph14%29.89 "Hg10 mi
8:30 AMN/ASunny.14 mphN/A29.89 "Hg10 mi
8:00 AM90 °FSunny.13 mph16%29.89 "Hg10 mi
7:30 AMN/ASunny.7 mphN/A29.89 "Hg10 mi
7:00 AM88 °FSunny.6 mph25%29.89 "Hg10 mi
6:30 AMN/ASunny.5 mphN/A29.86 "Hg10 mi
6:00 AM88 °FClear.3 mph31%29.86 "Hg10 mi
5:30 AMN/AClear.5 mphN/A29.86 "Hg10 mi
5:00 AM90 °FClear.6 mph36%29.86 "Hg10 mi
4:30 AMN/AClear.5 mphN/A29.86 "Hg10 mi
4:00 AM90 °FClear.6 mph36%29.86 "Hg10 mi
3:30 AMN/AClear.7 mphN/A29.86 "Hg10 mi
3:00 AM90 °FClear.6 mph36%29.86 "Hg10 mi
Weather by CustomWeather, © 2015

See weather overviewHow to use our weather pages